Dewpoint
48 49 49 49 50 49 49 48 47 47 48 47 48 49 52 55 56 57 60 59 59 58
47 48 47 47 48 46 45 43 43 44 45 45 45 47 49 52 54 55 56 56 58 55
44 44 44 44 44 43 42 42 42 42 42 42 43 44 46 49 50 51 51 51 51 49
42 42 42 42 42 41 40 40 40 40 40 41 41 42 43 45 46 46 47 46 46 44
41 41 41 40 40 39 39 39 39 39 39 39 40 41 41 42 42 43 43 43 43 42
40 40 40 39 39 39 39 39 39 39 38 38 39 40 40 40 40 40 40 40 40 40
39 39 39 39 39 39 39 38 38 38 38 38 38 38 38 39 39 40 40 39 38 38
39 39 39 39 38 38 38 38 38 37 37 37 37 37 38 39 38 38 38 37 37 39
39 39 39 38 38 38 38 38 38 38 38 38 37 39 39 37 36 36 35 34 34 33
38 38 38 38 38 37 38 38 38 38 36 37 37 38 37 36 36 35 35 35 34 31
38 38 38 37 37 37 37 37 38 37 37 37 36 36 33 32 32 32 32 32 31 30
38 37 37 37 36 36 36 35 36 34 36 36 34 32 30 28 28 29 27 24 23 25
38 37 37 36 36 35 35 33 31 34 34 31 31 30 28 25 19 14 15 16 23 28
37 37 37 36 36 34 33 33 34 33 31 29 28 26 28 24 15 14 16 16 18 21
Lifted_Index
7 8 8 8 8 8 9 9 9 9 9 9 9 9 8 7 6 5 4 4 3 3
8 8 8 8 8 8 9 9 9 9 9 9 9 9 9 8 7 6 5 4 4 4
8 8 8 8 8 9 9 9 9 9 9 9 10 10 10 10 9 8 7 6 5 5
8 8 8 9 9 9 9 9 9 9 9 9 10 10 10 10 10 9 8 8 7 7
7 8 8 9 9 10 10 9 9 9 9 9 10 10 10 11 11 11 10 9 9 8
7 7 8 9 9 10 10 9 9 9 9 10 10 10 10 11 11 11 11 11 10 9
6 7 8 8 9 9 10 10 9 9 9 10 10 10 10 11 11 11 11 11 11 10
6 7 8 8 9 9 10 10 10 9 9 10 10 10 10 11 11 11 11 11 10 10
6 7 8 9 9 10 10 10 9 9 9 9 10 10 11 11 11 11 11 11 11 11
6 7 8 9 9 10 10 10 9 9 9 9 10 11 12 12 13 13 13 14 14 15
6 7 7 8 9 10 10 9 9 9 9 10 11 13 14 15 16 16 17 17 17 17
6 6 7 7 8 9 9 9 9 10 11 12 14 16 17 18 18 17 17 18 19 19
6 6 7 7 8 9 9 10 10 12 14 15 17 18 19 18 18 17 17 18 18 19
6 6 7 7 8 8 9 10 11 13 15 17 18 18 19 18 17 16 16 17 18 18